Hourly Data Report for July 11, 2013

All times are specified in Local Standard Time (LST). Add 1 hour to adjust for Daylight Saving Time where and when it is observed.

VICTORIA INTL A
BRITISH COLUMBIA

48°38'50.000" N
123°25'33.000" W
19.50 m
1018621
71799
YYJ

Download Data

Hourly Data (July 2013)
Hourly Data Report for July 11, 2013
Temp Definition
°C
Dew Point Temp Definition
°C
Rel Hum Definition
%
Wind Dir Definition
10's deg

Wind Spd Definition
km/h
Visibility Definition
km
Stn Press Definition
kPa
Hmdx Definition


Wind Chill Definition


Weather Definition


TIME
00:00 Legend Double Dagger 14.0 6.2 59 28 21 48.3 101.23     LegendNANA
01:00 Legend Double Dagger 13.4 7.0 65 28 21 48.3 101.26     Mainly Clear
02:00 Legend Double Dagger 13.0 7.3 68 26 17 48.3 101.30     LegendNANA
03:00 Legend Double Dagger 12.9 7.2 68 26 19 48.3 101.35     LegendNANA
04:00 Legend Double Dagger 13.1 7.2 67 25 20 48.3 101.37     Mainly Clear
05:00 Legend Double Dagger 13.1 7.8 70 28 16 48.3 101.43     LegendNANA
06:00 Legend Double Dagger 13.7 7.7 67 25 11 48.3 101.47     LegendNANA
07:00 Legend Double Dagger 15.7 7.0 56 28 15 48.3 101.49     Mainly Clear
08:00 Legend Double Dagger 16.5 6.7 52 26 13 48.3 101.51     LegendNANA
09:00 Legend Double Dagger 17.4 7.5 52 24 4 48.3 101.52     LegendNANA
10:00 Legend Double Dagger 18.5 6.5 45 9 17 48.3 101.53     Mainly Clear
11:00 Legend Double Dagger 17.3 8.3 55 10 15 48.3 101.56     LegendNANA
12:00 Legend Double Dagger 19.1 7.3 46 9 18 48.3 101.56     LegendNANA
13:00 Legend Double Dagger 19.4 7.6 46 9 18 48.3 101.55     Mainly Clear
14:00 Legend Double Dagger 20.4 7.6 43 11 15 48.3 101.53     LegendNANA
15:00 Legend Double Dagger 18.7 7.9 49 9 13 48.3 101.51     LegendNANA
16:00 Legend Double Dagger 18.8 7.7 48 9 20 48.3 101.45     Mainly Clear
17:00 Legend Double Dagger 19.2 7.1 45 9 17 48.3 101.43     LegendNANA
18:00 Legend Double Dagger 17.5 8.5 55 6 13 48.3 101.38     LegendNANA
19:00 Legend Double Dagger 17.0 9.0 59 5 12 48.3 101.37     Mainly Clear
20:00 Legend Double Dagger 15.6 8.4 62 5 8 48.3 101.37     LegendNANA
21:00 Legend Double Dagger 14.9 8.2 64 29 3 48.3 101.39     LegendNANA
22:00 Legend Double Dagger 15.4 8.9 65 27 12 48.3 101.40     Clear
23:00 Legend Double Dagger 15.0 8.5 65 28 18 48.3 101.40     LegendNANA

Notes on Data Quality.

Legend

  • E = Estimated
  • M = Missing
  • NA = Not Available
  • ‡ = Partner data that is not subject to review by the National Climate Archives
Date modified: